Time,TemperatureF,DewpointF,PressureIn,WindDirection,WindDirectionDegrees,WindSpeedMPH,WindSpeedGustMPH,Humidity,HourlyPrecipIn,Conditions,Clouds,dailyrainin,SoftwareType,DateUTC
2013-10-13 09:42:00,55.0,45.0,30.15,NW,316,7.0,13.0,69,0.00,,,0.05,,2013-10-13 14:42:00,
2013-10-13 09:52:00,55.0,45.0,30.15,NW,316,7.0,13.0,69,0.00,,,0.05,,2013-10-13 14:52:00,
2013-10-13 10:01:00,55.0,45.0,30.15,NW,316,7.0,13.0,69,0.00,,,0.05,,2013-10-13 15:01:00,
2013-10-13 10:22:00,54.0,44.0,30.17,NW,312,7.0,14.0,70,0.00,,,0.05,,2013-10-13 15:22:00,
2013-10-13 10:33:00,54.0,44.0,30.17,NW,312,7.0,14.0,70,0.00,,,0.05,,2013-10-13 15:33:00,
2013-10-13 10:43:00,54.0,44.0,30.17,NW,312,7.0,14.0,70,0.00,,,0.05,,2013-10-13 15:43:00,
2013-10-13 10:54:00,54.0,44.0,30.17,NW,312,7.0,14.0,70,0.00,,,0.05,,2013-10-13 15:54:00,
2013-10-13 11:12:00,55.0,45.0,30.18,NW,309,6.0,12.0,69,0.00,,,0.05,,2013-10-13 16:12:00,
2013-10-13 11:24:00,54.0,44.0,30.18,NW,313,6.0,13.0,68,0.00,,,0.05,,2013-10-13 16:24:00,
2013-10-13 11:33:00,54.0,44.0,30.18,NW,313,6.0,13.0,68,0.00,,,0.05,,2013-10-13 16:33:00,
2013-10-13 11:42:00,54.0,44.0,30.18,NW,313,6.0,13.0,68,0.00,,,0.05,,2013-10-13 16:42:00,
2013-10-13 11:54:00,55.0,44.0,30.19,NW,322,5.0,11.0,67,0.00,,,0.05,,2013-10-13 16:54:00,
2013-10-13 12:22:00,54.0,43.0,30.19,WNW,302,7.0,14.0,67,0.00,,,0.05,,2013-10-13 17:22:00,
2013-10-13 12:43:00,55.0,43.0,30.20,NW,326,6.0,14.0,64,0.00,,,0.05,,2013-10-13 17:43:00,
2013-10-13 12:52:00,55.0,43.0,30.20,NW,326,6.0,14.0,64,0.00,,,0.05,,2013-10-13 17:52:00,
2013-10-13 13:12:00,55.0,42.0,30.20,NNW,331,6.0,13.0,61,0.00,,,0.05,,2013-10-13 18:12:00,
2013-10-13 13:22:00,55.0,42.0,30.20,NNW,331,6.0,13.0,61,0.00,,,0.05,,2013-10-13 18:22:00,
2013-10-13 13:42:00,55.0,41.0,30.19,NW,315,6.0,13.0,59,0.00,,,0.05,,2013-10-13 18:42:00,
2013-10-13 13:52:00,55.0,40.0,30.19,NW,314,3.0,8.0,56,0.00,,,0.04,,2013-10-13 18:52:00,
2013-10-13 14:11:00,56.0,39.0,30.19,WNW,299,3.0,8.0,53,0.00,,,0.01,,2013-10-13 19:11:00,
2013-10-13 14:22:00,56.0,39.0,30.20,NW,322,3.0,8.0,52,0.00,,,0.01,,2013-10-13 19:22:00,
2013-10-13 14:52:00,57.0,39.0,30.19,NNW,337,4.0,11.0,50,0.00,,,0.01,,2013-10-13 19:52:00,
2013-10-13 15:02:00,57.0,39.0,30.19,NNW,337,4.0,11.0,50,0.00,,,0.01,,2013-10-13 20:02:00,
2013-10-13 15:20:00,56.0,37.0,30.20,NNW,336,5.0,11.0,49,0.00,,,0.00,,2013-10-13 20:20:00,
2013-10-13 15:22:00,57.0,39.0,30.20,NW,325,3.0,7.0,51,0.00,,,0.00,,2013-10-13 20:22:00,
2013-10-13 15:43:00,56.0,37.0,30.20,NNW,336,5.0,11.0,49,0.00,,,0.00,,2013-10-13 20:43:00,
2013-10-13 15:52:00,56.0,37.0,30.20,NNW,336,5.0,11.0,49,0.00,,,0.00,,2013-10-13 20:52:00,
2013-10-13 16:02:00,56.0,37.0,30.20,NNW,336,5.0,11.0,49,0.00,,,0.00,,2013-10-13 21:02:00,
2013-10-13 16:11:00,56.0,37.0,30.20,NNW,336,5.0,11.0,49,0.00,,,0.00,,2013-10-13 21:11:00,
2013-10-13 17:24:00,58.0,38.0,30.20,NNW,335,1.0,7.0,47,0.00,,,0.00,,2013-10-13 22:24:00,
2013-10-13 17:43:00,56.0,36.0,30.20,NNE,27,1.0,6.0,46,0.00,,,0.00,,2013-10-13 22:43:00,
2013-10-13 17:53:00,56.0,36.0,30.20,NNE,27,1.0,6.0,46,0.00,,,0.00,,2013-10-13 22:53:00,
2013-10-13 18:03:00,56.0,36.0,30.20,NNE,27,1.0,6.0,46,0.00,,,0.00,,2013-10-13 23:03:00,
2013-10-13 18:22:00,55.0,41.0,30.21,North,0,0.0,0.0,58,0.00,,,0.00,,2013-10-13 23:22:00,
2013-10-13 18:52:00,51.0,41.0,30.22,North,0,0.0,0.0,68,0.00,,,0.00,,2013-10-13 23:52:00,
2013-10-13 19:12:00,50.0,41.0,30.23,North,0,0.0,0.0,72,0.00,,,0.00,,2013-10-14 00:12:00,
2013-10-13 19:21:00,50.0,42.0,30.23,North,0,0.0,0.0,74,0.00,,,0.00,,2013-10-14 00:21:00,
2013-10-13 19:32:00,50.0,42.0,30.23,North,0,0.0,0.0,74,0.00,,,0.00,,2013-10-14 00:32:00,
2013-10-13 19:42:00,50.0,42.0,30.23,North,0,0.0,0.0,74,0.00,,,0.00,,2013-10-14 00:42:00,
2013-10-13 19:52:00,48.0,42.0,30.24,North,0,0.0,0.0,80,0.00,,,0.00,,2013-10-14 00:52:00,
2013-10-13 20:11:00,47.0,41.0,30.24,North,0,0.0,0.0,80,0.00,,,0.00,,2013-10-14 01:11:00,
2013-10-13 20:21:00,47.0,41.0,30.24,North,0,0.0,0.0,80,0.00,,,0.00,,2013-10-14 01:21:00,
2013-10-13 20:32:00,47.0,41.0,30.24,North,0,0.0,0.0,80,0.00,,,0.00,,2013-10-14 01:32:00,
2013-10-13 20:52:00,44.0,40.0,30.24,North,0,0.0,0.0,86,0.00,,,0.00,,2013-10-14 01:52:00,
2013-10-13 21:11:00,44.0,40.0,30.24,North,0,0.0,0.0,87,0.00,,,0.00,,2013-10-14 02:11:00,
2013-10-13 21:22:00,43.0,40.0,30.25,North,0,0.0,0.0,88,0.00,,,0.00,,2013-10-14 02:22:00,
2013-10-13 21:32:00,43.0,40.0,30.25,North,0,0.0,0.0,88,0.00,,,0.00,,2013-10-14 02:32:00,
2013-10-13 21:52:00,43.0,40.0,30.25,North,0,0.0,0.0,88,0.00,,,0.00,,2013-10-14 02:52:00,